RH
47 43 56 65 60 63 60 58 59 53 46 42 46 51 47 51 52 56 60 69 72 68 60 52 42 42 70 70 78 68 62 55 41 50 51 52 49 51 48 45 42 41 39 35 33 32 33
42 47 57 57 63 62 59 61 57 50 41 43 49 51 45 54 55 58 65 73 80 75 69 56 50 47 71 65 73 85 61 66 50 52 55 53 56 50 50 43 42 39 37 36 33 32 31
42 47 49 50 59 57 58 59 53 49 45 50 47 53 56 55 57 60 74 85 81 79 76 62 62 55 71 70 82 91 54 69 58 48 52 53 57 51 48 45 42 41 41 36 32 33 33
46 48 46 51 54 55 65 59 53 52 53 53 58 57 59 57 56 64 77 83 86 91 71 73 68 60 66 66 79 91 61 72 71 57 56 53 59 56 51 47 45 44 43 45 36 31 30
45 50 50 60 51 57 64 57 54 56 51 57 61 67 69 63 59 58 64 81 79 84 77 79 73 63 72 67 88 83 61 73 75 65 79 81 70 63 58 52 53 50 51 46 40 35 33
46 53 56 53 50 58 63 56 54 45 51 58 66 72 67 64 65 61 64 70 68 81 71 73 68 70 62 74 90 82 65 75 83 90 97 94 92 81 65 55 53 48 49 44 41 33 35
42 51 55 51 52 63 60 53 48 47 61 68 67 69 56 62 64 73 71 66 67 81 76 69 59 77 59 73 96 85 69 80 86 93 97 95 94 84 66 59 52 50 50 45 39 37 36
44 53 51 51 54 58 56 51 48 62 63 54 50 61 68 84 75 72 67 76 77 76 71 73 64 78 63 80 96 86 66 82 93 94 97 97 91 88 81 73 70 65 62 57 50 44 40
46 51 47 49 55 55 47 47 57 59 57 68 72 79 91 98 98 83 73 81 78 68 68 76 67 75 77 95 89 78 67 73 87 96 95 96 97 95 96 88 79 75 70 64 59 52 46
43 48 47 48 53 54 46 51 54 55 67 83 92 97 96 93 97 97 82 79 69 63 69 79 84 89 89 89 92 80 71 78 88 93 92 89 95 94 96 95 94 94 77 72 66 60 59
42 47 48 47 55 49 44 43 47 57 66 76 82 86 87 87 89 95 83 72 59 63 84 85 89 90 96 92 84 83 80 77 84 93 88 88 89 90 93 94 95 86 81 74 67 64 56
38 44 49 48 48 45 40 42 48 52 66 63 61 69 72 76 77 75 66 56 69 87 94 85 83 98 94 87 84 81 84 79 83 86 85 85 84 85 80 78 76 79 79 77 70 61 60
38 42 52 45 41 41 41 40 43 51 61 60 60 57 61 63 61 57 59 75 94 93 81 87 90 94 93 94 82 83 86 83 89 94 90 83 82 79 78 77 71 65 69 73 57 61 53
39 45 52 46 42 35 36 39 41 50 58 61 58 70 72 68 64 80 90 95 93 83 82 93 91 90 95 91 88 82 84 79 81 82 82 79 82 76 75 69 67 66 64 63 48 57 56
37 47 56 47 42 31 36 37 39 44 52 58 59 60 65 69 76 83 87 92 90 97 89 88 86 93 95 92 83 91 81 73 73 76 78 76 76 76 73 68 64 66 66 56 61 58 62
39 48 57 53 39 29 31 34 40 45 45 50 56 59 59 61 67 77 73 87 92 96 89 86 85 87 88 96 86 87 82 69 72 77 73 70 83 74 71 67 63 61 59 60 59 48 45
41 48 54 59 36 23 22 32 37 45 51 54 57 65 69 66 65 68 73 78 82 79 73 73 76 80 84 86 78 78 75 73 76 69 64 63 67 75 66 70 67 62 62 55 55 53 55
43 44 54 64 33 23 17 27 35 40 48 55 62 67 67 67 68 74 76 73 69 69 63 60 69 78 82 77 72 73 74 64 67 64 63 60 66 69 65 65 57 54 56 54 60 58 64
44 45 55 65 40 25 17 20 31 42 46 50 59 68 71 69 76 74 75 74 69 66 65 67 73 72 68 67 66 66 71 61 58 60 63 60 62 70 67 59 59 62 60 58 57 58 64
44 45 62 71 46 29 21 18 27 44 45 48 56 65 70 73 74 78 79 73 70 68 68 67 69 69 66 67 70 74 59 58 57 59 58 56 58 56 61 56 60 65 61 59 59 64 60
37 53 65 73 66 33 24 19 20 40 43 46 49 59 62 78 72 72 74 75 74 75 70 68 68 69 72 75 71 67 56 54 55 58 58 56 60 61 61 59 61 62 58 61 59 57 59
45 58 68 72 78 44 28 24 16 27 44 46 47 58 60 64 69 71 72 72 70 67 65 66 72 75 72 76 71 67 57 55 54 58 58 56 66 65 65 60 62 63 59 60 60 59 67
49 59 69 75 73 63 36 28 22 18 38 47 49 52 59 60 66 67 68 69 67 66 67 67 69 72 75 78 76 66 62 60 60 63 64 62 68 70 67 63 64 60 54 52 61 68 72
53 63 63 80 75 73 53 36 27 22 23 46 52 52 53 62 65 67 68 67 69 66 67 72 75 76 82 80 78 73 72 70 68 67 65 67 69 70 73 65 68 48 54 66 73 76 77
56 67 65 74 75 70 72 54 38 33 22 29 51 55 55 59 67 66 71 70 67 68 71 71 71 74 76 77 80 82 80 76 75 70 70 67 72 76 71 64 57 54 70 81 83 83 79
60 66 67 64 75 76 69 70 54 42 35 21 33 50 59 58 63 69 73 73 72 69 68 65 62 66 69 74 78 77 79 75 82 80 71 70 67 69 75 67 69 55 75 84 84 84 78
58 60 62 63 75 78 71 77 66 53 53 38 29 37 49 62 57 67 72 73 74 70 66 64 62 63 66 73 75 76 75 77 80 80 80 79 78 71 71 68 64 65 79 85 91 81 79
61 66 67 66 74 76 75 76 74 68 60 52 45 40 49 46 61 65 69 73 72 72 70 64 61 63 72 74 73 79 80 78 80 77 78 75 76 72 70 74 78 72 84 91 85 82 79
68 70 70 75 74 79 77 76 68 72 73 66 54 51 49 54 48 68 72 71 76 74 72 66 63 63 66 72 74 76 83 85 83 86 80 79 69 70 68 71 75 83 84 83 82 82 80